TAM6AC SBSP-SBRJ

Flight info

Callsign TAM6AC
Flight time N/A
Altitude 25000
Route NIBRU UZ171 KEVUN
Aircraft A319/M-SDE3FGHIRWY/LB1

Departure

Time N/A
Airport Congonhas–Deputado Freitas Nobre Airport (SBSP)

Arrival

Time 2026-05-03 20:42
Airport Santos Dumont Airport (SBRJ)
Time Latitude Longitude Altitude Speed Heading
2026-05-03 20:15 -23.57770 -45.50048 25225 ft 465 kts 81°
2026-05-03 20:15 -23.57249 -45.46571 25231 ft 465 kts 79°
2026-05-03 20:15 -23.56548 -45.43132 25226 ft 464 kts 76°
2026-05-03 20:15 -23.55797 -45.39717 25227 ft 464 kts 76°
2026-05-03 20:16 -23.55060 -45.36286 25230 ft 464 kts 76°
2026-05-03 20:16 -23.54337 -45.32864 25230 ft 463 kts 76°
2026-05-03 20:16 -23.53618 -45.29458 25230 ft 462 kts 76°
2026-05-03 20:16 -23.52892 -45.26039 25230 ft 463 kts 76°
2026-05-03 20:17 -23.52167 -45.22622 25229 ft 463 kts 76°
2026-05-03 20:17 -23.51439 -45.19208 25226 ft 463 kts 76°
2026-05-03 20:17 -23.50705 -45.15789 25167 ft 461 kts 76°
2026-05-03 20:17 -23.49987 -45.12445 24944 ft 458 kts 76°
2026-05-03 20:18 -23.49270 -45.09077 24714 ft 455 kts 76°
2026-05-03 20:18 -23.48555 -45.05727 24491 ft 453 kts 77°
2026-05-03 20:18 -23.47842 -45.02387 24266 ft 452 kts 77°
2026-05-03 20:18 -23.47127 -44.99066 24051 ft 450 kts 77°
2026-05-03 20:19 -23.46415 -44.95751 23831 ft 448 kts 77°
2026-05-03 20:19 -23.45700 -44.92470 23564 ft 444 kts 76°
2026-05-03 20:19 -23.44970 -44.89169 23289 ft 441 kts 76°
2026-05-03 20:19 -23.44264 -44.85982 23030 ft 438 kts 76°
2026-05-03 20:20 -23.43548 -44.82771 22707 ft 433 kts 76°
2026-05-03 20:20 -23.42841 -44.79588 22256 ft 431 kts 76°
2026-05-03 20:20 -23.42139 -44.76426 21797 ft 428 kts 76°
2026-05-03 20:20 -23.41472 -44.73427 21372 ft 425 kts 76°
2026-05-03 20:21 -23.40768 -44.70311 20920 ft 423 kts 76°
2026-05-03 20:21 -23.40068 -44.67207 20464 ft 420 kts 76°
2026-05-03 20:21 -23.39378 -44.64127 20014 ft 418 kts 76°
2026-05-03 20:21 -23.38697 -44.61069 19567 ft 415 kts 76°
2026-05-03 20:22 -23.38022 -44.58015 19114 ft 413 kts 76°
2026-05-03 20:22 -23.37367 -44.55062 18678 ft 411 kts 76°
2026-05-03 20:22 -23.36686 -44.52044 18179 ft 409 kts 76°
2026-05-03 20:22 -23.36008 -44.49056 17744 ft 404 kts 76°
2026-05-03 20:23 -23.35347 -44.46111 17322 ft 400 kts 76°
2026-05-03 20:23 -23.34684 -44.43190 16885 ft 396 kts 73°
2026-05-03 20:23 -23.33718 -44.40403 16468 ft 391 kts 65°
2026-05-03 20:23 -23.32570 -44.37739 16053 ft 387 kts 64°
2026-05-03 20:24 -23.31437 -44.35120 15646 ft 383 kts 64°
2026-05-03 20:24 -23.30305 -44.32507 15236 ft 380 kts 64°
2026-05-03 20:24 -23.29188 -44.29918 14831 ft 376 kts 65°
2026-05-03 20:24 -23.28089 -44.27354 14436 ft 372 kts 65°
2026-05-03 20:25 -23.27010 -44.24848 14040 ft 369 kts 65°
2026-05-03 20:25 -23.25914 -44.22297 13578 ft 366 kts 65°
2026-05-03 20:25 -23.24858 -44.19843 13189 ft 361 kts 65°
2026-05-03 20:25 -23.23789 -44.17353 12771 ft 356 kts 65°
2026-05-03 20:26 -23.22755 -44.14963 12370 ft 352 kts 65°
2026-05-03 20:26 -23.21704 -44.12535 11961 ft 348 kts 65°
2026-05-03 20:26 -23.20683 -44.10170 11553 ft 344 kts 65°
2026-05-03 20:26 -23.19670 -44.07829 11172 ft 340 kts 64°
2026-05-03 20:27 -23.18630 -44.05557 10997 ft 332 kts 63°
2026-05-03 20:27 -23.17596 -44.03322 10818 ft 330 kts 63°
2026-05-03 20:27 -23.16571 -44.01100 10649 ft 330 kts 63°
2026-05-03 20:27 -23.15546 -43.98873 10471 ft 328 kts 64°
2026-05-03 20:28 -23.14611 -43.96682 10298 ft 318 kts 65°
2026-05-03 20:28 -23.13693 -43.94506 10128 ft 308 kts 64°
2026-05-03 20:28 -23.12800 -43.92410 9961 ft 303 kts 64°
2026-05-03 20:28 -23.11927 -43.90369 9788 ft 300 kts 64°
2026-05-03 20:29 -23.11041 -43.88288 9628 ft 300 kts 64°
2026-05-03 20:29 -23.10174 -43.86259 9465 ft 299 kts 64°
2026-05-03 20:29 -23.09296 -43.84205 9310 ft 298 kts 64°
2026-05-03 20:29 -23.08423 -43.82168 9150 ft 298 kts 64°
2026-05-03 20:30 -23.07545 -43.80122 8991 ft 299 kts 64°
2026-05-03 20:30 -23.06669 -43.78080 8827 ft 297 kts 64°
2026-05-03 20:30 -23.05794 -43.76047 8666 ft 297 kts 64°
2026-05-03 20:30 -23.04918 -43.74013 8508 ft 297 kts 64°
2026-05-03 20:31 -23.04050 -43.71987 8353 ft 294 kts 65°
2026-05-03 20:31 -23.03187 -43.69970 8187 ft 295 kts 64°
2026-05-03 20:31 -23.02311 -43.67957 7918 ft 294 kts 64°
2026-05-03 20:31 -23.01435 -43.65960 7646 ft 291 kts 64°
2026-05-03 20:32 -23.00564 -43.63978 7379 ft 291 kts 64°
2026-05-03 20:32 -22.99698 -43.61991 6954 ft 290 kts 65°
2026-05-03 20:32 -22.98842 -43.60030 6792 ft 287 kts 65°
2026-05-03 20:32 -22.97984 -43.58086 6625 ft 287 kts 65°
2026-05-03 20:33 -22.97394 -43.56756 6511 ft 286 kts 65°
2026-05-03 20:33 -22.96266 -43.54208 6284 ft 284 kts 65°
2026-05-03 20:33 -22.95680 -43.52880 6177 ft 285 kts 65°
2026-05-03 20:33 -22.94554 -43.50318 5906 ft 283 kts 68°
2026-05-03 20:34 -22.94005 -43.49018 5599 ft 283 kts 67°
2026-05-03 20:34 -22.93193 -43.47085 5327 ft 277 kts 66°
2026-05-03 20:34 -22.92407 -43.45219 5171 ft 268 kts 66°
2026-05-03 20:34 -22.91638 -43.43393 4840 ft 264 kts 66°
2026-05-03 20:35 -22.90895 -43.41648 4791 ft 244 kts 68°
2026-05-03 20:35 -22.90208 -43.40038 4791 ft 221 kts 68°
2026-05-03 20:35 -22.89597 -43.38598 4854 ft 200 kts 68°
2026-05-03 20:35 -22.89036 -43.37283 4695 ft 189 kts 68°
2026-05-03 20:36 -22.88489 -43.35983 4423 ft 187 kts 71°
2026-05-03 20:36 -22.88267 -43.34631 4183 ft 180 kts 94°
2026-05-03 20:36 -22.88311 -43.33291 3939 ft 178 kts 96°
2026-05-03 20:36 -22.88361 -43.31972 3707 ft 175 kts 96°
2026-05-03 20:37 -22.88410 -43.30656 3475 ft 173 kts 96°
2026-05-03 20:37 -22.88457 -43.29369 3239 ft 171 kts 96°
2026-05-03 20:37 -22.88503 -43.28103 3009 ft 170 kts 96°
2026-05-03 20:37 -22.88550 -43.26823 2781 ft 169 kts 97°
2026-05-03 20:38 -22.88840 -43.25606 2550 ft 164 kts 115°
2026-05-03 20:38 -22.89261 -43.24485 2294 ft 160 kts 116°
2026-05-03 20:38 -22.89668 -43.23397 2070 ft 147 kts 115°
2026-05-03 20:38 -22.90030 -43.22419 1808 ft 137 kts 115°
2026-05-03 20:39 -22.90384 -43.21472 1752 ft 132 kts 117°
2026-05-03 20:39 -22.90905 -43.20665 1656 ft 129 kts 135°
2026-05-03 20:39 -22.91582 -43.20032 1509 ft 128 kts 147°
2026-05-03 20:39 -22.92372 -43.19602 1318 ft 126 kts 163°
2026-05-03 20:40 -22.93206 -43.19386 1123 ft 122 kts 173°
2026-05-03 20:40 -22.94012 -43.19044 982 ft 129 kts 146°
2026-05-03 20:40 -22.94550 -43.18276 870 ft 137 kts 113°
2026-05-03 20:40 -22.94553 -43.17259 641 ft 136 kts 73°
2026-05-03 20:41 -22.93942 -43.16484 496 ft 138 kts 31°
2026-05-03 20:41 -22.93023 -43.16204 282 ft 135 kts
2026-05-03 20:41 -22.92088 -43.16238 119 ft 134 kts 358°
2026-05-03 20:41 -22.91211 -43.16274 21 ft 109 kts 356°
2026-05-03 20:42 -22.90787 -43.16300 27 ft 40 kts 356°
2026-05-03 20:42 -22.90615 -43.16305 24 ft 15 kts 359°
2026-05-03 20:42 -22.90515 -43.16326 24 ft 15 kts 326°
2026-05-03 20:42 -22.90494 -43.16435 23 ft 16 kts 265°
2026-05-03 20:43 -22.90518 -43.16551 22 ft 16 kts 213°
2026-05-03 20:43 -22.90628 -43.16549 22 ft 16 kts 176°
2026-05-03 20:43 -22.90740 -43.16542 22 ft 16 kts 177°
2026-05-03 20:43 -22.90856 -43.16549 22 ft 17 kts 180°
2026-05-03 20:44 -22.90975 -43.16540 23 ft 17 kts 175°
2026-05-03 20:44 -22.91085 -43.16530 24 ft 14 kts 167°
2026-05-03 20:44 -22.91132 -43.16531 22 ft 2 kts 244°
2026-05-03 20:44 -22.91136 -43.16572 22 ft 6 kts 267°
2026-05-03 20:45 -22.91136 -43.16588 22 ft 1 kts 268°
2026-05-03 20:45 -22.91136 -43.16593 22 ft 0 kts 268°
2026-05-03 20:45 -22.91136 -43.16594 22 ft 0 kts 268°